ROMMA est une association bénévole à but non lucratif. Votre soutien est indispensable : ADHERER à ROMMA ou FAIRE un DON

Crêts du Salève - (74, Haute-Savoie)

Salève (1270 m)   Longitude: 6° 10' 28'' E   Latitude: 46° 7' 42'' N Station romma n°73
 

Détail journalier du     <<     >>

Température Precipitation Humidité Vent Dir Rafale Dir. rafale Ensol.
Heure (°C) (mm) (%) (km/h) (km/h) (min)
01:00 3.109225NNO37NNO0
02:00 2.709025NNE40NNE0
03:00 2.309228NNE40N0
04:00 2.209631NNE42NNE0
05:00 2.109827N37NNE0
06:00 2.109528N32N0
07:00 1.509830N37N0
08:00 1.909530N39N10
09:00 2.40.29527NNE32NNE60
10:00 2.409724N31N60
11:00 3.109224N31N60
12:00 3.809520N29N60
13:00 4.209313NNO24N60
14:00 4.909210NNO23ONO60
15:00
16:00 6.906612NNO21NNO60
17:00 6.807415O24O40
18:00 6.40777NO19O40
19:00 6.207012O23O50
20:00 6.80786ONO16ONO0
21:00 6.40724ONO13NNO0
22:00 6.50725N10NNO0
23:00 6.60745NNO10NNO0
minuit 6.60733NNO8NNO0

Graphique du 03-10-2019

 

Serveur OMMA